Regional Weather Roundup
Issued by NWS

Home | Current Version | Previous Version | Text Only | Print | Product List | Glossary Off
Versions: 1 2 3 4 5 6 7 8 9 10 11 12 13 14 15 16 17 18 19 20 21 22 23 24 25 26 27 28 29 30 31 32 33 34 35 36 37 38 39 40 41 42 43 44 45 46 47 48 49 50

000
ASUS43 KLOT 240708
RWRIL

ILLINOIS REGIONAL WEATHER ROUNDUP
NATIONAL WEATHER SERVICE CHICAGO/ROMEOVILLE IL
200 AM CDT TUE MAY 24 2016

NOTE: "FAIR" INDICATES FEW OR NO CLOUDS BELOW 12,000 FEET WITH NO
SIGNIFICANT WEATHER AND/OR OBSTRUCTIONS TO VISIBILITY.

* THESE STATIONS ARE NOT UNDER NWS QUALITY CONTROL. THEY ALSO MAY NOT
  REPORT WEATHER SUCH AS PRECIPITATION OR FOG.

ILZ001-002-007-009-015-016-024-240800-
NORTHWEST ILLINOIS

CITY           SKY/WX    TMP DP  RH WIND       PRES   REMARKS
MOLINE         MOCLDY    67  48  50 CALM      29.91S
STERLING*      MOCLDY    61  50  67 VRB3      29.93R
SAVANNA*       CLOUDY    60  51  71 SE6       29.91S
$$

ILZ003-004-008-010-011-017-018-240800-
NORTH CENTRAL ILLINOIS

CITY           SKY/WX    TMP DP  RH WIND       PRES   REMARKS
ROCKFORD       MOCLDY    63  48  58 S5        29.95R
FREEPORT*      CLOUDY    64  47  54 S8        29.94R
ROCHELLE*      CLOUDY    60  48  63 S8        29.94S
DE KALB*       CLOUDY    63  48  59 S9        29.95S
$$

ILZ005-006-012>014-019>023-240800-
NORTHEAST ILLINOIS

CITY           SKY/WX    TMP DP  RH WIND       PRES   REMARKS
CHICAGO-OHARE  PTCLDY    60  43  53 S8        29.94S
CHICAGO-MIDWAY MOCLDY    68  42  38 S6        29.95S
AURORA         CLOUDY    63  48  58 S8        29.95R
LANSING*       CLEAR     59  41  51 S6        29.97R
JOLIET*        PTCLDY    64  48  56 CALM      29.96R
WAUKEGAN       CLEAR     59  44  57 SW9       29.92F
DUPAGE AIRPORT CLOUDY    59  45  59 S7        29.94S
KANKAKEE*      CLEAR    N/A N/A N/A S6        29.97S
WHEELING       CLEAR     59  43  55 S3        29.95S
MORRIS*        PTCLDY    64  46  52 S3        29.95R
ROMEOVILLE*    CLEAR     60  44  56 S8        29.96S
NORTHERLY ISL    N/A     68  40  35 SW8         N/A
NORTHERLY ISL    N/A     68  40  35 SW8         N/A
$$

LMZ740>746-240800-
SOUTHERN LAKE MICHIGAN

STATION/POSITION SKY/WX   TEMP    WIND        PRES    VSBY  WAVE
                          AIR SEA DIR/SP/G                  HT/PER
                          (F)     (DEG/KT/KT) (MB)    (MI)  (FT/S)
SOUTHERN BUOY              55 49  160/ 12/ 12 1013.6S         1
WILMETTE HARBOR            60 55  170/  6/  8   N/A           1/ 2
HARRISON CRIB              69     190/ 15/ 16   N/A
BURNHAM HARBOR             68     180/  6/ 11   N/A
CALUMET HARBOR             67     180/  5/  8 1013.7R
BURNS HARBOR               65     180/  9/ 17 1015.2R
MICHIGAN CITY              67     140/ 11/ 14   N/A
MICHIGAN CITY 6N           61 56  190/  6/  8   N/A           1
ST. JOSEPH                 61 56  180/  6/  8   N/A           1
$$

ILZ025>027-034>036-040-047-049-050-058-095>099-240800-
WEST-CENTRAL ILLINOIS

CITY           SKY/WX    TMP DP  RH WIND       PRES   REMARKS
QUINCY         CLOUDY    66  53  63 S6        29.94S
GALESBURG*     PTCLDY    62  51  66 S8        29.94R
MACOMB*        CLOUDY    64  52  65 S8        29.95S
JACKSONVILLE*  CLOUDY    66  52  61 S3        29.96R
PITTSFIELD*    CLOUDY    64  56  73 SE3       29.96S
$$

ILZ028>032-037-038-041>044-048-051>054-059>061-240800-
CENTRAL ILLINOIS

CITY           SKY/WX    TMP DP  RH WIND       PRES   REMARKS
PONTIAC        PTCLDY    67  48  49 S10       29.97R
BLOOMINGTON    MOCLDY    62  51  67 S8        29.99R
DECATUR        CLEAR     64  50  60 S8        29.99R
PEORIA         PTCLDY    63  50  62 CALM      29.96R
LACON*         PTCLDY    62  49  62 S3        29.95R
LINCOLN*       CLEAR     63  55  73 S3        29.97R
SPRINGFIELD    CLOUDY    63  53  70 S3        29.97R
TAYLORVILLE    CLEAR     62  54  76 SE5       29.98S
$$

ILZ033-039-045-046-055>057-062-063-240800-
EAST-CENTRAL ILLINOIS

CITY           SKY/WX    TMP DP  RH WIND       PRES   REMARKS
CHAMPAIGN      PTCLDY    61  46  57 S7        29.99R
RANTOUL*       PTCLDY    64  46  53 S3        29.99R
MATTOON        CLOUDY    63  48  58 S7        29.99R
PARIS*         PTCLDY    58  47  65 CALM      30.01R
$$

ILZ079-100>102-240800-
SOUTHWEST ILLINOIS

CITY           SKY/WX    TMP DP  RH WIND       PRES   REMARKS
ALTON          PTCLDY    59  54  81 CALM      29.97S
BELLEVILLE     CLEAR     60  59  99 CALM      29.96R
CAHOKIA*       MOCLDY    62  55  77 CALM      29.96R
SPARTA*        CLEAR     62  56  82 SE5       29.98S
$$

ILZ064>066-069>071-074>076-080>082-084>086-088>090-092>094-240800-
SOUTH-CENTRAL ILLINOIS

CITY           SKY/WX    TMP DP  RH WIND       PRES   REMARKS
CARBONDALE     CLEAR     59  56  89 CALM      29.98S
CAIRO*         PTCLDY    60  58  93 CALM      29.98F
EFFINGHAM*     CLEAR     60  54  81 CALM      30.01R
MARION         CLEAR     63  57  82 CALM      29.99S
MT. VERNON     CLEAR     54  48  82 CALM      30.00R
CENTRALIA*     CLEAR     64  57  79 SE3       29.98R
SALEM*         CLEAR     66  53  63 SE3       29.98R
METROPOLIS*    CLEAR     60  60 100 CALM      30.00S
$$

ILZ067-068-072-073-078-083-087-091-240800-
SOUTHEAST ILLINOIS

CITY           SKY/WX    TMP DP  RH WIND       PRES   REMARKS
LAWRENCEVILLE  PTCLDY    61  51  70 SW3       30.01R
FLORA*         PTCLDY    59  54  84 CALM      29.99S
FAIRFIELD*     CLEAR     61  53  74 CALM      29.99R
HARRISBURG*    CLEAR     61  57  85 CALM      29.99S
ROBINSON*      CLOUDY    55  54  94 CALM      30.01R
CARMI*         CLEAR     61  55  82 SE5       29.99R
$$

ABBREVIATIONS USED IN REMARKS
   TC - TEMPERATURE IN CELSIUS
  WCI - WIND CHILL INDEX
   HX - HEAT INDEX
  VSB - VISIBILITY
$$




USA.gov is the U.S. government's official web portal to all federal, state and local government web resources and services.